Flag for Lithuania Weather past 2 weeks in Vilnius, Lithuania

Now
61 °F

Clear.


Feels Like: 61 °F
Forecast: 56 / 81 °F
Wind: 6 mph from Northeast

Location: Vilnius Airport

Current Time: Jul 23, 2014 at 3:42:17 AM

Latest Report: Jul 23, 2014 at 2:50 AM


Visibility: 10 mi

Pressure: 30.09 "Hg

Humidity: 77%

Dew point: 54 °F

Location of VilniusLocation

Historic Weather in Vilnius — Graph

°F

Vilnius temperature yesterday

Maximum temperature yesterday: 79 °F (at 1:20 PM)
Minimum temperature yesterday: 55 °F (at 3:20 AM)
Average temperature yesterday: 67 °F

Past Weeks' High & Low Weather Summary

 TemperatureHumidityPressure
High86 °F (Jul 8, 4:20 PM)100% (Jul 12, 6:50 AM)30.18 "Hg (Jul 12, 6:50 AM)
Low50 °F (Jul 19, 4:50 AM)31% (Jul 18, 12:50 PM)29.71 "Hg (Jul 12, 8:50 PM)
Average67 °F73%29.98 "Hg
* Reported Jul 7 7:20 PM — Jul 22 7:50 PM, Vilnius, Weather by CustomWeather, © 2014

Note: Actual official high and low records may vary slightly from our data, if they occured in-between our weather recording intervals... More about our weather records

Advertising

Vilnius weather history for previous 24 hours

 ConditionsComfort  
Time TempWeatherWind HumidityBarometerVisibility
7:50 PM
Jul 22
72 °FBroken clouds.6 mph61%30.04 "HgN/A
7:20 PM75 °FScattered showers. Broken clouds.6 mph54%30.04 "HgN/A
6:50 PM72 °FScattered showers. Broken clouds.3 mph65%30.04 "HgN/A
6:20 PM77 °FBroken clouds.6 mph54%30.04 "HgN/A
5:50 PM73 °FBroken clouds.5 mph57%30.04 "HgN/A
5:20 PM70 °FBroken clouds.3 mph64%30.04 "HgN/A
4:50 PM68 °FThunderstorms. Broken clouds.3 mph69%30.04 "HgN/A
4:20 PM66 °FThunderstorms. Broken clouds.6 mph68%30.04 "HgN/A
3:50 PM77 °FThunderstorms. Broken clouds.10 mph44%30.04 "HgN/A
3:20 PM77 °FScattered showers. Broken clouds.6 mph47%30.04 "HgN/A
2:50 PM79 °FBroken clouds.5 mph45%30.04 "HgN/A
2:20 PM79 °FSunny.7 mph45%30.04 "Hg10 mi
1:50 PM77 °FPassing clouds.7 mph44%30.04 "HgN/A
1:20 PM79 °FPassing clouds.8 mph45%30.04 "HgN/A
12:50 PM77 °FPassing clouds.8 mph47%30.04 "HgN/A
12:20 PM77 °FPassing clouds.8 mph47%30.04 "HgN/A
11:50 AM75 °FSunny.12 mph50%30.04 "Hg10 mi
11:20 AM75 °FSunny.10 mph54%30.04 "Hg10 mi
10:50 AM73 °FPassing clouds.10 mph61%30.04 "HgN/A
10:20 AM72 °FSunny.9 mph61%30.04 "Hg10 mi
9:50 AM70 °FSunny.8 mph69%30.04 "Hg10 mi
9:20 AM68 °FSunny.5 mph73%30.04 "Hg10 mi
8:50 AM68 °FSunny.8 mph73%30.04 "Hg10 mi
8:20 AM66 °FSunny.6 mph78%30.04 "Hg10 mi
7:50 AM63 °FSunny.6 mph83%30.01 "Hg10 mi
7:20 AM63 °FPassing clouds.6 mph83%30.01 "HgN/A
6:50 AM61 °FSunny.5 mph88%30.01 "Hg10 mi
6:20 AM59 °FSunny.5 mph88%30.01 "Hg10 mi
5:50 AM59 °FClear.3 mph88%30.01 "Hg10 mi
5:20 AM57 °FClear.3 mph88%30.01 "Hg10 mi
4:50 AM55 °FClear.3 mph88%30.01 "Hg5 mi
4:20 AM57 °FClear.3 mph82%30.01 "Hg5 mi
3:50 AM57 °FClear.2 mph88%30.01 "Hg5 mi
3:20 AM55 °FClear.1 mph88%30.01 "Hg5 mi
Weather by CustomWeather, © 2014

See weather overviewHow to use our weather pages